Location: LDNL
(36.4545°S, 141.6685°E)
Time: 01:35:35
(UTC+10:00)

DELFI C3 - Visible Passes

Search period start: 26 September 2022 00:00
Search period end: 06 October 2022 01:00
Orbit: 512 x 524 km, 97.3° (Epoch: 24 September)

Date Brightness Start Highest point End Pass type
(mag) Time Alt. Az. Time Alt. Az. Time Alt. Az.
26 Sep ? 19:51:04 10° SSE 19:54:53 70° E 19:58:38 10° N visible
27 Sep ? 19:37:09 10° SSE 19:40:49 44° E 19:44:26 10° N visible
27 Sep ? 21:13:23 10° SW 21:14:28 11° WSW 21:15:35 10° W visible
28 Sep ? 19:23:21 10° SE 19:26:42 28° E 19:30:00 10° NNE visible
28 Sep ? 20:58:09 10° SSW 21:00:33 16° WSW 21:02:56 10° WNW visible
29 Sep ? 19:09:44 10° SE 19:12:31 19° E 19:15:17 10° NE visible
29 Sep ? 20:43:30 10° SSW 20:46:34 23° WSW 20:49:37 10° NW visible
30 Sep ? 20:29:02 10° S 20:32:32 35° WSW 20:35:58 10° NW visible
01 Oct ? 20:14:42 10° S 20:18:26 54° WSW 20:22:07 10° NNW visible
02 Oct ? 21:00:27 10° S 21:04:16 85° WSW 21:08:03 10° NNW visible
03 Oct ? 20:46:17 10° SSE 20:50:04 60° E 20:53:47 10° N visible
04 Oct ? 20:32:13 10° SSE 20:35:48 38° E 20:39:20 10° NNE visible
04 Oct ? 22:07:51 10° SW 22:09:30 13° WSW 22:11:10 10° W visible
05 Oct ? 20:18:17 10° SE 20:21:29 25° E 20:24:37 10° NNE visible
05 Oct ? 21:52:43 10° SSW 21:55:23 18° WSW 21:58:01 10° WNW visible
